Weather History for KEAT - November, 2012

Change the Weather History Date:

Sunday, November 11, 2012

  Actual Average Record
Temperature  
Mean Temperature 24 °F 36 °F  
Max Temperature 32 °F 43 °F 59 °F (1990)
Min Temperature 15 °F 29 °F 13 °F (1985)
Degree Days  
Heating Degree Days 41 29  
Month to date heating degree days 279 300  
Since 1 July heating degree days 1078 1256  
Cooling Degree Days 0 0  
Month to date cooling degree days 0 0  
Year to date cooling degree days 294 249  
Moisture  
Dew Point 26 °F    
Average Humidity 82    
Maximum Humidity 92    
Minimum Humidity 67    
Precipitation  
Precipitation T in 0.07 in 0.40 in (2011)
Month to date precipitation 0.54 0.70  
Year to date precipitation 17.64 13.04  
Snow  
Snow T in 0.20 in - ()
Month to date snowfall 3.2 1.0  
Since 1 July snowfall 3.2 1.1  
Since 1 September snowfall 3.2 1.1  
Snow Depth -    
Sea Level Pressure  
Sea Level Pressure 30.29 in    
Wind  
Wind Speed 2 mph (East)    
Max Wind Speed 6 mph    
Max Gust Speed -    
Visibility 5 miles    
Events Snow    
T = Trace of Precipitation, MM = Missing Value Source: NWS Daily Summary

Daily Weather History Graph

Daily Weather History Graph

Search for Another Location

Airport or City:

Trip Planner

Search our weather history database for the weather conditions in past years. The results will help you decide how hot, cold, wet, or windy it might be!

Date:

Astronomy

Nov. 11, 2012 Rise Set
Actual Time 7:00 AM PST 4:28 PM PST
Civil Twilight 6:27 AM PST 5:02 PM PST
Nautical Twilight 5:50 AM PST 5:39 PM PST
Astronomical Twilight 5:14 AM PST 6:15 PM PST
Moon 4:12 AM PST (11/11) 3:02 PM PST (11/11)
Length of Visible Light 10h 34m
Length of Day
9h 28m
Waning Crescent, 6% of the Moon is Illuminated
Nov 11
Waning Crescent
Nov 13
New
Nov 20
First Quarter
Nov 28
Full
Dec 6
Last Quarter

Hourly Weather History & Observations

Time (PST) Temp. Windchill Dew Point Humidity Pressure Visibility Wind Dir Wind Speed Gust Speed Precip Events Conditions
12:55 AM 28.0 °F 22.8 °F 21.0 °F 75% 30.24 in 10.0 mi ENE 4.6 mph - N/A   Clear
1:55 AM 26.1 °F 21.9 °F 19.9 °F 78% 30.25 in 10.0 mi ENE 3.5 mph - N/A   Clear
3:55 AM 25.0 °F 20.7 °F 19.9 °F 81% 30.25 in 10.0 mi East 3.5 mph - N/A   Clear
4:55 AM 24.1 °F - 19.0 °F 81% 30.27 in 10.0 mi Calm Calm - N/A   Clear
5:55 AM 26.1 °F 21.9 °F 21.0 °F 81% 30.27 in 10.0 mi East 3.5 mph - N/A   Clear
6:55 AM 26.1 °F 21.9 °F 21.0 °F 81% 30.28 in 10.0 mi East 3.5 mph - N/A   Clear
7:55 AM 28.0 °F - 23.0 °F 81% 30.30 in 10.0 mi Calm Calm - N/A   Clear
8:55 AM 30.0 °F - 24.1 °F 79% 30.31 in 10.0 mi Calm Calm - N/A   Clear
10:55 AM 32.0 °F 26.4 °F 24.1 °F 73% 30.33 in 10.0 mi East 5.8 mph - N/A   Overcast
11:55 AM 33.1 °F 28.7 °F 24.1 °F 70% 30.32 in 10.0 mi ESE 4.6 mph - N/A   Overcast
12:55 PM 33.1 °F 28.7 °F 24.1 °F 70% 30.32 in 10.0 mi ESE 4.6 mph - N/A   Overcast
1:55 PM 34.0 °F - 24.1 °F 67% 30.33 in 10.0 mi Calm Calm - N/A   Scattered Clouds
2:55 PM 34.0 °F - 25.0 °F 70% 30.33 in 10.0 mi Calm Calm - N/A   Mostly Cloudy
3:55 PM 35.1 °F - 25.0 °F 67% 30.34 in 10.0 mi Calm Calm - N/A   Overcast
4:55 PM 34.0 °F 29.8 °F 27.0 °F 75% 30.34 in 10.0 mi East 4.6 mph - N/A   Overcast
5:55 PM 34.0 °F 29.8 °F 27.0 °F 75% 30.34 in 9.0 mi ESE 4.6 mph - N/A   Overcast
6:25 PM 33.8 °F - 28.4 °F 81% 30.29 in 2.0 mi Calm Calm - 0.00 in Snow Light Snow
6:48 PM 33.8 °F - 28.4 °F 81% 30.29 in 1.8 mi Calm Calm - 0.00 in Snow Light Snow
6:55 PM 32.0 °F - 28.9 °F 88% 30.34 in 1.5 mi Calm Calm - 0.00 in Snow Light Snow
7:22 PM 32.0 °F - 28.4 °F 87% 30.29 in 0.8 mi Calm Calm - 0.02 in Snow Light Snow
7:36 PM 32.0 °F - 28.4 °F 87% 30.29 in 1.0 mi Calm Calm - 0.03 in Snow Light Snow
7:45 PM 32.0 °F - 28.4 °F 87% 30.28 in 1.2 mi Calm Calm - 0.04 in Snow Light Snow
7:55 PM 32.0 °F - 28.9 °F 88% 30.32 in 1.2 mi Calm Calm - 0.04 in Snow Light Snow
8:06 PM 32.0 °F - 28.4 °F 87% 30.28 in 1.5 mi Calm Calm - 0.00 in Snow Light Snow
8:25 PM 32.0 °F - 28.4 °F 87% 30.28 in 2.5 mi Calm Calm - 0.00 in Snow Light Snow
8:34 PM 32.0 °F - 28.4 °F 87% 30.28 in 2.5 mi Calm Calm - 0.00 in Snow Light Snow
8:55 PM 32.0 °F - 28.9 °F 88% 30.32 in 1.8 mi Calm Calm - 0.01 in Snow Light Snow
8:59 PM 32.0 °F - 28.4 °F 87% 30.28 in 1.8 mi Calm Calm - 0.00 in Snow Light Snow
9:12 PM 32.0 °F - 28.4 °F 87% 30.27 in 2.0 mi Calm Calm - 0.00 in Snow Light Snow
9:55 PM 32.0 °F - 28.9 °F 88% 30.31 in 1.2 mi Calm Calm - 0.01 in Snow Light Snow
10:31 PM 32.0 °F - 28.4 °F 87% 30.26 in 1.8 mi Calm Calm - 0.00 in Snow Light Snow
10:55 PM 32.0 °F - 30.0 °F 92% 30.30 in 1.2 mi Calm Calm - 0.01 in Snow Light Snow
11:30 PM 32.0 °F - 28.4 °F 87% 30.26 in 2.0 mi Calm Calm - 0.00 in Snow Light Snow
11:43 PM 32.0 °F - 28.4 °F 87% 30.25 in 1.8 mi Calm Calm - 0.00 in Snow Light Snow
11:55 PM 32.0 °F - 28.9 °F 88% 30.28 in 1.8 mi Calm Calm - 0.00 in Snow Light Snow